ARIANE 2 DEB, 27033

Orbit data source: Space-Track

ARIANE 2 DEB, 27033 is space debris in HEO originally from a launch on Fri, 27 Jan 1989 UTC launched from the French Guiana (FRGUI). Debris objects in space refer to the collection of defunct objects orbiting the Earth. Examples of debris include non-operational satellites, rocket bodies, and fragments generated from explosions, collisions, or faulty payload assembly.

Loading next visibility...
Identifier
27033, 1989-006N
Orbit
HEO
Country
Flag of FRFR
Related business
Manufacturer
EADS/LV
Mission
Spacecraft
Bus & Motor
Unknown
Mass
Unknown
Launch date (UTC)
1989-01-27 (37 years ago)
Launch vehicle
Unknown
Launch site
French Guiana (FRGUI)
Object type
Payload
Rocket body
Debris
Shape & HBR
Unknown shape, 0.6 m
Radar Cross Section
Medium (>0.1 m² and <1 m²)

Expand to show TLE details & history
Last TLE update: 5 hours ago

TLE from 5 hours ago
0 ARIANE 2 DEB
1 27033U 89006N   26062.14777887  .00000104  00000-0  30522-2 0  9992
2 27033   8.3851  55.2924 7102854 115.0387 354.9812  2.34720276207522
Epoch: 2026-03-03T03:32Z
TLE epoch observation values (Epoch: 2026-03-03T03:32:48.094Z)
Latitude
8.15025°
Longitude
-83.00169°
Altitude
1,226.711 km
Speed
9.389 km/s
True Right ascension
08h 44m 31s
True Declination
8° 06' 18"
Sunlit
Object was in full shadow at epoch
Visualization orbit readout
Latitude
Unknown
Longitude
Unknown
Altitude
Unknown
Speed
Unknown
Apparent Right ascension
Unknown
Apparent Declination
Unknown
Sunlit
N/A
Visualization observer readout
Local Sidereal Time
12:19:15
Azimuth
Unknown
Elevation
Unknown
Doppler factor
Unknown
Orbital elements
Apogee altitude
34,535.031 km
Perigee altitude
552.368 km
Semi-major axis
23,921.837 km
Eccentricity
0.71029
Inclination
8.3851°
RAAN
55.2924°
Arg. of periapsis
115.0387°
True anomaly
320.65398°
Mean anomaly
354.9812°
Eccentric anomaly
343.25832°
Mean motion
0.58661 °/min
Orbital period
613.69 mins
BSTAR
0.0030522
Loading maneuver chart data...
Computing Atmospheric mass density...
Loading historical data...
Loading historical data...
Loading historical data...
Loading historical data...
Loading historical data...
Loading historical data...
Loading historical data...

Documentation

Showing up to 5 results
|